Tracking 19800 objects as of 23-Jul-2019
HD Live streaming from Space Station
objects crossing your sky now

THORAD DELTA 1 DEB

Track THORAD DELTA 1 DEB now!
10-day predictions


NORAD ID: 8401
Int'l Code: 1974-089CD
Perigee: 1,353.4 km
Apogee: 1,451.6 km
Inclination: 101.7 °
Period: 113.7 minutes
Semi major axis: 7773 km
RCS: 0.0291 m2 (small)
Launch date: November 15, 1974
Source: United States (US)
Launch site: AIR FORCE WESTERN TEST RANGE (AFWTR)

Note: This is SATELLITE DEBRIS
aabbcc
Your satellite tracking list
Your tracking list is empty




NASA's NSSDC Master Catalog

Two Line Element Set (TLE):
1  8401U 74089CD  19203.64882863 -.00000132  00000-0 -45005-3 0  9996
2  8401 101.6819 251.5206 0063180  52.1125 105.5870 12.66709358 66359
Source of the keplerian elements: AFSPC